RH
42 41 41 39 38 39 39 39 37 35 31 31 31 32 31 31 33 32 30 30 29 31 31 32 33 35 37 40 43 44 45 45 45 45 45 43 40 38
46 45 40 38 37 36 35 37 37 37 32 32 33 34 33 33 33 34 31 30 31 30 32 33 34 39 43 44 47 48 47 48 47 46 46 46 44 42
51 46 43 38 32 32 30 29 33 35 33 32 32 34 34 35 33 33 32 31 31 31 32 34 36 40 43 46 47 48 48 49 48 49 52 51 48 45
51 45 35 31 30 30 29 29 30 33 34 31 32 33 34 35 35 33 33 32 32 31 31 35 38 41 43 45 47 50 51 52 52 52 55 56 56 55
43 36 31 29 29 29 31 30 29 31 32 31 33 32 34 36 36 34 31 33 33 34 33 35 39 41 43 44 45 49 50 53 55 57 57 57 57 57
47 40 34 31 29 29 29 28 28 30 31 32 33 33 33 37 37 36 34 34 35 34 35 36 38 40 41 43 46 48 48 50 55 57 60 59 58 59
45 38 36 33 32 32 32 31 32 33 32 33 33 33 34 37 38 38 36 35 35 34 34 36 35 36 39 42 45 46 44 49 53 55 58 60 58 60
34 33 34 34 33 33 32 31 31 32 33 33 32 32 35 37 39 41 38 37 36 36 34 35 37 36 35 39 42 42 43 50 54 54 57 61 60 59
37 34 34 34 32 31 31 31 32 33 32 33 32 34 34 35 36 38 39 39 37 38 38 35 41 37 37 37 41 43 46 50 51 54 57 59 60 59
45 41 36 36 35 33 33 35 36 35 35 36 38 38 37 38 38 37 39 40 39 39 41 42 40 38 37 35 39 43 47 50 50 50 54 55 57 56
43 43 43 41 37 36 36 38 40 39 41 42 43 40 41 41 41 40 40 41 40 39 41 46 42 40 39 37 41 44 49 48 50 50 50 53 55 57
52 49 48 47 45 41 40 41 43 45 48 48 46 46 46 44 43 42 42 42 46 44 39 42 42 42 40 40 43 45 47 47 50 48 48 53 57 56
69 65 60 55 50 46 48 48 52 52 51 50 49 50 48 46 43 42 43 46 47 46 48 48 46 47 48 50 41 44 46 46 49 50 52 54 58 60
66 64 61 56 54 53 54 51 53 54 54 52 52 52 49 48 47 45 45 47 49 50 51 52 51 50 52 52 50 45 44 48 50 51 51 53 53 56
78 74 70 67 65 63 60 57 55 57 57 55 53 51 50 52 52 50 49 51 55 56 55 56 55 54 55 54 52 47 48 44 51 52 55 58 59 58
84 79 78 76 71 68 66 64 63 62 59 56 55 53 56 56 53 54 56 57 60 61 60 59 58 61 57 56 56 52 53 53 57 55 57 58 64 62
89 84 84 83 79 74 71 69 67 65 64 60 60 59 61 60 58 61 62 64 62 61 60 62 63 62 59 56 57 52 57 55 59 57 57 58 63 60
89 88 85 83 80 78 74 70 70 70 69 68 67 65 66 64 65 66 64 62 61 62 61 63 63 61 61 58 58 54 60 60 57 66 64 61 64 69
87 87 85 79 79 82 80 79 78 76 76 78 76 75 73 72 71 69 66 64 63 62 62 63 63 62 61 58 56 63 63 63 64 65 65 67 68 69
82 85 84 83 83 82 80 80 80 80 80 81 81 79 76 73 70 69 67 66 63 61 61 62 65 66 64 61 60 61 64 68 74 72 74 72 71 72
75 78 78 77 77 76 76 77 77 78 80 79 78 77 76 72 70 69 69 70 70 67 63 62 68 69 68 69 62 62 71 78 77 80 80 80 79 74
70 68 69 72 73 74 73 72 72 72 74 77 77 76 75 74 74 74 73 72 71 68 65 65 69 73 72 72 69 68 72 80 82 83 86 86 87 84
69 68 67 67 68 68 69 70 70 71 72 72 73 74 73 75 79 77 78 79 77 76 76 73 75 79 79 80 77 75 76 75 82 88 88 88 91 98